Home > Time Zones > World Clock > Weather > Japan > Kobe > Past weeks

Flag for Japan Weather past 2 weeks in Kobe, Japan

Now
55 °F

Light rain. Fog.


Feels Like: 54 °F
Forecast: 52 / 65 °F
Wind: 6 mph from East

Location: Osaka International Airport


UV Index: 5 (Moderate)

Visibility: 3 mi


Pressure: 29.89 "Hg

Humidity: 88%

Dew point: 52 °F

Location of KobeLocation

Historic Weather in Kobe

°F

Kobe temperature yesterday

Maximum temperature yesterday: 75 °F (at 2:00 PM)
Minimum temperature yesterday: 52 °F (at 5:00 AM)
Average temperature yesterday: 67 °F

Past Weeks' High & Low Weather Summary

 TemperatureHumidityPressure
High75 °F (Apr 17, 2:00 PM)88% (Apr 4, 6:00 AM)30.18 "Hg (Apr 4, 6:00 AM)
Low36 °F (Apr 7, 5:00 AM)13% (Apr 14, 3:00 PM)29.45 "Hg (Apr 4, 10:00 AM)
Average57 °F44%29.97 "Hg
* Reported Apr 3 5:00 AM — Apr 18 5:00 AM, Kobe, Weather by CustomWeather, © 2014

Note: Actual official high and low records may vary slightly from our data, if they occured in-between our weather recording intervals... More about our weather records

Advertising

Historic Weather Conditions — Data for Previous 24 hours

 ConditionsComfort  
Time TempWeatherWind HumidityBarometerVisibility
5:00 AM
Apr 18
57 °FLight rain. Partly cloudy.1 mph82%29.89 "Hg5 mi
8:00 PM
Apr 17
68 °FPassing clouds.3 mph33%29.92 "HgN/A
7:00 PM68 °FPassing clouds.7 mph35%29.89 "HgN/A
6:00 PM70 °FPassing clouds.5 mph31%29.89 "HgN/A
5:00 PM73 °FPassing clouds.5 mph20%29.86 "HgN/A
4:00 PM75 °FPassing clouds.7 mph21%29.86 "HgN/A
3:00 PM75 °FPartly sunny.9 mph22%29.89 "HgN/A
2:00 PM75 °FPassing clouds.7 mph25%29.89 "HgN/A
1:00 PM73 °FPassing clouds.9 mph33%29.92 "HgN/A
12:00 PM72 °FPassing clouds.7 mph38%29.95 "Hg6 mi
11:00 AM70 °FClear.5 mph40%29.95 "Hg5 mi
10:00 AM66 °FClear.3 mph46%29.98 "Hg4 mi
9:00 AM63 °FClear.2 mph56%29.98 "Hg4 mi
8:00 AM59 °FClear.1 mph59%29.98 "Hg5 mi
7:00 AM54 °FClear.2 mph67%29.98 "Hg6 mi
6:00 AM52 °FSunny.3 mph67%29.98 "Hg10 mi
Weather by CustomWeather, © 2014

See weather overview